Weather Roundup
Issued by NWS Chicago, IL

Home | Current Version | Previous Version | Graphics & Text | Print | Product List | Glossary On
Versions: 1 2 3 4 5 6 7 8 9 10 11 12 13 14 15 16 17 18 19 20 21 22 23 24 25 26 27 28 29 30 31 32 33 34 35 36 37 38 39 40 41 42 43 44 45 46 47 48 49 50
000
NZUS59 KLOT 291002
HRRLOT

CHICAGO AREA WEATHER ROUNDUP
NATIONAL WEATHER SERVICE CHICAGO/ROMEOVILLE IL
500 AM CDT SAT AUG 29 2015

NOTE: "FAIR" INDICATES FEW OR NO CLOUDS BELOW 12,000 FEET WITH NO
SIGNIFICANT WEATHER AND/OR OBSTRUCTIONS TO VISIBILITY.

* THESE STATIONS ARE NOT UNDER NWS QUALITY CONTROL. THEY ALSO MAY NOT
  REPORT WEATHER SUCH AS PRECIPITATION OR FOG.

ILZ005-006-012>014-019>023-291100-
NORTHEAST ILLINOIS

CITY           SKY/WX    TMP DP  RH WIND       PRES   REMARKS
OHARE          LGT RAIN  64  61  90 S8        30.04R
MIDWAY         RAIN      67  61  81 S5        30.04S
AURORA         CLOUDY    64  62  93 E5        30.04S FOG
LANSING*       CLOUDY    65  59  80 CALM      30.05S
WAUKEGAN       LGT RAIN  65  62  90 S7        30.03S
DUPAGE AIRPORT HVY RAIN  63  61  93 S6        30.04R FOG
WHEELING       LGT RAIN  65  61  87 S7        30.05R
NORTHERLY IS     N/A     64  60  87 S2          N/A
$$

WIZ051-052-058>065-066-070>072-291100-
SOUTHEAST WISCONSIN

CITY           SKY/WX    TMP DP  RH WIND       PRES   REMARKS
MILWAUKEE      RAIN      64  62  93 E6        30.04S FOG
KENOSHA*       RAIN      66  63  90 S5        30.04S FOG
RACINE*        LGT RAIN  64  61  90 S3        30.06R FOG
$$

INZ001>003-010>013-019-020-291100-
NORTHWEST INDIANA

CITY           SKY/WX    TMP DP  RH WIND       PRES   REMARKS
GARY*          MOCLDY    66  57  72 SE8       30.05F
MICHIGAN CITY* NOT AVBL
RENSSELAER*    NOT AVBL
$$

LMZ740>746-291100-
SOUTHERN LAKE MICHIGAN

STATION/POSITION TIME  SKY/WX   TEMP WIND        PRES    VSBY
                                AIR  DIR/SP/G
                 (UTC)          (F)  (DEG/KT/KT) (MB)    (MI)
HARRISON CRIB    0900            67  160/ 11/ 14   N/A
BURNHAM HARBOR   1000            64  170/  3/  5   N/A
CALUMET HARBOR   NOT AVBL
BURNS HARBOR     0900            68  150/  8/ 13 1017.9F
MICHIGAN CITY    0900            67  130/  8/ 11   N/A
$$

ABBREVIATIONS USED IN REMARKS
   TC - TEMPERATURE IN CELSIUS
  WCI - WIND CHILL INDEX
   HX - HEAT INDEX
  VSB - VISIBILITY
$$


USA.gov is the U.S. government's official web portal to all federal, state and local government web resources and services.